Regional Weather Roundup
Issued by NWS

Home | Current Version | Previous Version | Text Only | Print | Product List | Glossary Off
Versions: 1 2 3 4 5 6 7 8 9 10 11 12 13 14 15 16 17 18 19 20 21 22 23 24 25 26 27 28 29 30 31 32 33 34 35 36 37 38 39 40 41 42 43 44 45 46 47 48 49 50

000
ASUS43 KLMK 280310
RWRKY
KENTUCKY REGIONAL WEATHER ROUNDUP
NATIONAL WEATHER SERVICE LOUISVILLE KY
1100 PM EDT WED MAY 27 2015

NOTE "FAIR" INDICATES FEW OR NO CLOUDS BELOW 12,000 FEET
WITH NO SIGNIFICANT WEATHER AND/OR OBSTRUCTIONS TO VISIBILITY.

KYZ001>023-026-027-061>063-070>075-280400-
WESTERN AND SOUTH CENTRAL KENTUCKY

CITY           SKY/WX    TMP DP  RH WIND       PRES   REMARKS
PADUCAH        MOCLDY    70  66  87 SE3       30.12R
HENDERSON      CLOUDY    68  63  83 S6        30.12R
OWENSBORO      CLOUDY    70  67  90 S7        30.15R
HOPKINSVILLE   CLOUDY    70  67  90 SE5       30.16R
BOWLING GREEN  CLOUDY    69  64  84 SE5       30.18R
GLASGOW        MOCLDY    66  66 100 CALM      30.19R
$$

KYZ024-025-028>034-038-045-046-053-280400-
NORTH CENTRAL KENTUCKY

CITY           SKY/WX    TMP DP  RH WIND       PRES   REMARKS
LOUISVILLE/SDF MOCLDY    68  64  87 S8        30.15R
LOUISVILLE/LOU CLOUDY    67  63  87 S3        30.16R
FORT KNOX      CLEAR     65  64  95 S5        30.15R
$$

KYZ035>037-039>044-047>052-055>060-089>105-280400-
NORTHEAST KENTUCKY

CITY           SKY/WX    TMP DP  RH WIND       PRES   REMARKS
LEXINGTON      MOCLDY    63  61  93 S3        30.18R
COVINGTON      CLOUDY    66  61  84 SW8       30.14R
FRANKFORT      CLOUDY    63  60  90 SW7       30.15S
$$

KYZ054-064>069-076>088-106>120-280400-
SOUTHEAST KENTUCKY

CITY           SKY/WX    TMP DP  RH WIND       PRES   REMARKS
JACKSON        MOCLDY    69  61  75 CALM      30.19R
LONDON         CLOUDY    66  58  75 CALM      30.20R
SOMERSET       MOCLDY    61  61 100 CALM      30.22R
MIDDLESBORO    CLOUDY    66  66  99 CALM      30.22S
MONTICELLO     CLOUDY    65  64  96 CALM      30.23R
$$




USA.gov is the U.S. government's official web portal to all federal, state and local government web resources and services.